Home > Weather > Wels > Past weeks

Flag for Austria Past Weather in Wels, Upper Austria, Austria — Yesterday and Last 2 Weeks

Now
68 °F

Partly sunny.


Feels Like: 68 °F
Forecast: 63 / 81 °F
Wind: N/A

Location: Linz / Hoersching-Flughafen

Current Time: Jun 30, 2016 at 9:02:51 AM

Latest Report: Jun 30, 2016 at 8:00 AM


Visibility: 16 mi

Pressure: 29.94 "Hg

Humidity: 84%

Dew Point: 63 °F

Location of WelsLocation

Past Weather in Wels — Graph

°F

Wels Temperature Yesterday

Maximum temperature yesterday: 81 °F (at 7:00 PM)
Minimum temperature yesterday: 56 °F (at 5:00 AM)
Average temperature yesterday: 69 °F

High & Low Weather Summary for the Past Weeks

 TemperatureHumidityPressure
High92 °F (Jun 24, 4:00 PM)100% (Jun 21, 6:00 AM)30.29 "Hg (Jun 21, 6:00 AM)
Low53 °F (Jun 21, 2:00 AM)32% (Jun 24, 5:00 PM)29.44 "Hg (Jun 16, 5:00 PM)
Average67 °F72%30.00 "Hg
* Reported Jun 15 8:00 AM — Jun 30 8:00 AM, Wels, Weather by CustomWeather, © 2016

Note: Actual official high and low records may vary slightly from our data, if they occured in-between our weather recording intervals... More about our weather records

Advertising

Wels Weather History for the Previous 24 Hours

Scroll right to see more
 ConditionsComfort  
Time TempWeatherWind HumidityBarometerVisibility
8:00 AM
Thu, Jun 30
68 °FPartly sunny.N/A84%29.94 "Hg16 mi
7:00 AM66 °FOvercast.N/A84%29.94 "Hg25 mi
6:00 AM64 °FOvercast.N/A91%29.93 "Hg28 mi
5:00 AM64 °FRain showers. Overcast.5 mph90%29.95 "Hg19 mi
4:00 AM64 °FOvercast.N/A88%29.94 "Hg28 mi
2:00 AM67 °FPassing clouds.N/A75%29.94 "Hg31 mi
1:00 AM69 °FRain showers. Low clouds.5 mph68%29.94 "Hg31 mi
12:00 AM71 °FLow clouds.7 mph70%29.93 "Hg25 mi
9:00 PM
Wed, Jun 29
75 °FPartly sunny.N/A58%29.91 "Hg31 mi
8:00 PMN/APassing clouds.6 mphN/AN/A3 mi
7:00 PM81 °FPassing clouds.N/A43%29.89 "Hg19 mi
6:00 PM80 °FPassing clouds.N/A44%29.90 "Hg16 mi
5:00 PM80 °FPassing clouds.5 mph46%29.92 "Hg25 mi
4:00 PM79 °FPartly sunny.3 mph46%29.94 "Hg22 mi
2:00 PM79 °FPassing clouds.5 mph43%29.96 "Hg19 mi
1:00 PM78 °FScattered clouds.6 mph51%29.97 "Hg19 mi
12:00 PM77 °FPassing clouds.6 mph55%29.96 "Hg19 mi
11:00 AM73 °FPassing clouds.6 mph58%29.98 "Hg14 mi
10:00 AM70 °FPassing clouds.N/A66%30.00 "Hg17 mi
9:00 AM66 °FScattered clouds.N/A74%30.01 "Hg10 mi
Weather by CustomWeather, © 2016

See weather overviewHow to use our weather pages